Location: Newark
(51.0000°N, 11.4100°E)
Time: 18:23:38
(UTC+00:00)

Vanguard 2 - All Passes

Search period start: 18 November 2019 00:00
Search period end: 28 November 2019 00:00
Orbit: 554 x 2937 km, 32.9° (Epoch: 17 November)

Date Brightness Start Highest point End Pass type
(mag) Time Alt. Az. Time Alt. Az. Time Alt. Az.
18 Nov - 08:15:57 10° SSW 08:19:37 14° S 08:22:40 10° SSE daylight
18 Nov - 10:25:06 10° SSW 10:27:03 12° SSW 10:28:49 10° S daylight
19 Nov - 06:26:37 10° S 06:29:13 11° SSE 06:31:34 10° SSE daylight
19 Nov - 08:32:44 10° SSW 08:37:15 16° S 08:40:51 10° SE daylight
19 Nov - 10:43:13 10° SSW 10:44:33 11° SSW 10:45:47 10° S daylight
20 Nov - 06:41:44 10° SSW 06:46:53 15° SSE 06:51:03 10° SE daylight
20 Nov - 08:49:54 10° SW 08:54:51 17° S 08:58:42 10° SSE daylight
21 Nov - 06:58:02 10° SSW 07:04:33 18° S 07:09:32 10° SE daylight
21 Nov - 09:07:21 10° SW 09:12:25 17° S 09:16:20 10° SSE daylight
22 Nov - 05:08:06 10° S 05:13:41 14° SSE 05:18:21 10° SE visible
22 Nov - 07:14:50 10° SW 07:22:12 20° S 07:27:36 10° SE daylight
22 Nov - 09:25:01 10° SW 09:29:56 17° SSW 09:33:44 10° SSE daylight
23 Nov - 05:23:35 10° SSW 05:31:19 18° SSE 05:37:22 10° SE visible
23 Nov - 07:31:57 10° SW 07:39:49 22° S 07:45:27 10° SE daylight
23 Nov - 09:42:57 10° SW 09:47:23 15° SSW 09:50:55 10° SSE daylight
24 Nov - 03:36:32 10° SSE 03:40:03 11° SSE 03:43:17 10° SE visible
24 Nov - 05:39:50 10° SSW 05:48:58 22° SSE 05:55:45 10° ESE visible
24 Nov - 07:49:20 10° SW 07:57:24 23° S 08:03:08 10° SE daylight
24 Nov - 10:01:13 10° SW 10:04:45 13° SSW 10:07:43 10° S daylight
25 Nov - 03:50:04 10° S 03:57:37 16° SSE 04:03:57 10° ESE visible
25 Nov - 05:56:33 10° SW 06:06:36 25° S 06:13:50 10° ESE visible
25 Nov - 08:06:54 10° WSW 08:14:57 23° SSW 08:20:39 10° SE daylight
25 Nov - 10:20:18 10° SW 10:22:04 11° SSW 10:23:41 10° SSW daylight
26 Nov - 04:05:27 10° SSW 04:15:11 20° SSE 04:22:56 10° ESE visible
26 Nov - 06:13:36 10° SW 06:24:14 27° S 06:31:42 10° SE visible
26 Nov - 08:24:39 10° WSW 08:32:26 22° SSW 08:38:01 10° SSE daylight
27 Nov - 02:19:21 10° SSE 02:23:38 11° SE 02:27:37 10° SE visible
27 Nov - 04:21:35 10° SSW 04:32:47 24° SSE 04:41:22 10° ESE visible
27 Nov - 06:30:53 10° SW 06:41:50 29° S 06:49:26 10° SE daylight
27 Nov - 08:42:34 10° WSW 08:49:51 20° SSW 08:55:12 10° SSE daylight
